When you browse on this site, cookies collect data to enhance your experience and personalize the content and advertising you see.
Visit our Privacy Policy to learn more. By continuing to use the site, you agree to this use of cookies and data.

Hourly Weather Gavrilovo

Today, 12 July, Sunday

Time Temperature Precipitation Wind Pressure Humidity
00:00 +13°C° 0 mm 2 mps 755 mmHg 85%
01:00 +12°C° 0 mm 1 mps 755 mmHg 89%
02:00 +11°C° 0 mm 1 mps 755 mmHg 96%
03:00 +11°C° 0 mm 1 mps 755 mmHg 94%
04:00 +12°C° 0 mm 1 mps 755 mmHg 93%
05:00 +12°C° 0 mm 1 mps 755 mmHg 92%
06:00 +13°C° 0 mm 1 mps 755 mmHg 85%
07:00 +15°C° 0 mm 1 mps 755 mmHg 79%
08:00 +16°C° 0 mm 1 mps 756 mmHg 71%
09:00 +18°C° 0.1 mm 1 mps 756 mmHg 67%
10:00 +19°C° 0.1 mm 1 mps 755 mmHg 63%
11:00 +20°C° 0.1 mm 1 mps 755 mmHg 58%
12:00 +21°C° 0.1 mm 1 mps 755 mmHg 56%
13:00 +21°C° 0.1 mm 1 mps 755 mmHg 54%
14:00 +21°C° 0.1 mm 1 mps 755 mmHg 52%
15:00 +20°C° 0.1 mm 2 mps 755 mmHg 58%
16:00 +19°C° 0.1 mm 2 mps 755 mmHg 64%
17:00 +19°C° 0.1 mm 2 mps 755 mmHg 70%
18:00 +18°C° 0.3 mm 1 mps 755 mmHg 77%
19:00 +16°C° 0.3 mm 1 mps 755 mmHg 84%
20:00 +15°C° 0.3 mm 1 mps 755 mmHg 92%
21:00 +14°C° 0 mm 1 mps 754 mmHg 93%
22:00 +13°C° 0 mm 1 mps 754 mmHg 94%
23:00 +12°C° 0 mm 1 mps 754 mmHg 96%

Tomorrow, 13 July, Monday

Time Temperature Precipitation Wind Pressure Humidity
00:00 +11°C° 0 mm 1 mps 754 mmHg 96%
01:00 +11°C° 0 mm 1 mps 755 mmHg 96%
02:00 +11°C° 0 mm 1 mps 755 mmHg 96%
03:00 +11°C° 0 mm 1 mps 754 mmHg 96%
04:00 +11°C° 0 mm 1 mps 754 mmHg 96%
05:00 +11°C° 0 mm 1 mps 754 mmHg 96%
06:00 +12°C° 0 mm 1 mps 754 mmHg 91%
07:00 +14°C° 0 mm 2 mps 754 mmHg 86%
08:00 +15°C° 0 mm 2 mps 754 mmHg 80%
09:00 +17°C° 0 mm 2 mps 754 mmHg 71%
10:00 +18°C° 0 mm 2 mps 754 mmHg 61%
11:00 +20°C° 0 mm 2 mps 753 mmHg 52%
12:00 +21°C° 0 mm 2 mps 753 mmHg 48%
13:00 +21°C° 0 mm 2 mps 753 mmHg 44%
14:00 +23°C° 0 mm 2 mps 753 mmHg 40%
15:00 +23°C° 0 mm 2 mps 753 mmHg 42%
16:00 +21°C° 0 mm 2 mps 753 mmHg 44%
17:00 +21°C° 0 mm 2 mps 752 mmHg 46%
18:00 +20°C° 0 mm 2 mps 752 mmHg 54%
19:00 +18°C° 0 mm 2 mps 752 mmHg 63%
20:00 +18°C° 0 mm 1 mps 752 mmHg 72%
21:00 +15°C° 0 mm 1 mps 752 mmHg 74%
22:00 +14°C° 0 mm 1 mps 752 mmHg 76%
23:00 +13°C° 0 mm 1 mps 752 mmHg 78%

Day after tomorrow, 14 July, Tuesday

Time Temperature Precipitation Wind Pressure Humidity
00:00 +12°C° 0 mm 1 mps 752 mmHg 81%
01:00 +12°C° 0 mm 1 mps 753 mmHg 83%
02:00 +11°C° 0 mm 1 mps 753 mmHg 86%
03:00 +11°C° 0 mm 1 mps 753 mmHg 86%
04:00 +11°C° 0 mm 1 mps 753 mmHg 87%
05:00 +11°C° 0 mm 1 mps 752 mmHg 87%
06:00 +14°C° 0 mm 1 mps 753 mmHg 80%
07:00 +16°C° 0 mm 2 mps 753 mmHg 72%
08:00 +18°C° 0 mm 2 mps 753 mmHg 65%
09:00 +19°C° 0 mm 2 mps 753 mmHg 59%
10:00 +20°C° 0 mm 2 mps 752 mmHg 53%
11:00 +21°C° 0 mm 3 mps 752 mmHg 47%
12:00 +22°C° 0 mm 3 mps 752 mmHg 46%
13:00 +22°C° 0 mm 3 mps 752 mmHg 44%
14:00 +24°C° 0 mm 3 mps 752 mmHg 43%
15:00 +22°C° 0 mm 3 mps 752 mmHg 44%
16:00 +22°C° 0 mm 3 mps 751 mmHg 45%
17:00 +22°C° 0 mm 3 mps 751 mmHg 46%
18:00 +20°C° 0 mm 3 mps 751 mmHg 53%
19:00 +18°C° 0 mm 3 mps 751 mmHg 61%
20:00 +16°C° 0 mm 2 mps 751 mmHg 69%
21:00 +15°C° 0 mm 2 mps 751 mmHg 69%
22:00 +14°C° 0 mm 2 mps 751 mmHg 69%
23:00 +13°C° 0 mm 2 mps 751 mmHg 69%

15 July, Wednesday

Time Temperature Precipitation Wind Pressure Humidity
00:00 +12°C° 0 mm 2 mps 751 mmHg 71%
01:00 +10°C° 0 mm 2 mps 752 mmHg 72%
02:00 +11°C° 0 mm 1 mps 752 mmHg 73%
03:00 +10°C° 0 mm 2 mps 752 mmHg 73%
04:00 +9°C° 0 mm 2 mps 751 mmHg 73%
05:00 +9°C° 0 mm 2 mps 751 mmHg 72%
06:00 +12°C° 0 mm 2 mps 751 mmHg 68%
07:00 +14°C° 0 mm 2 mps 751 mmHg 64%
08:00 +16°C° 0 mm 2 mps 751 mmHg 59%
09:00 +18°C° 0 mm 2 mps 751 mmHg 55%
10:00 +19°C° 0 mm 3 mps 751 mmHg 51%
11:00 +21°C° 0 mm 3 mps 751 mmHg 47%
12:00 +21°C° 0 mm 3 mps 750 mmHg 45%
13:00 +22°C° 0 mm 3 mps 750 mmHg 44%
14:00 +24°C° 0 mm 3 mps 750 mmHg 43%
15:00 +22°C° 0 mm 3 mps 750 mmHg 44%
16:00 +22°C° 0 mm 3 mps 750 mmHg 45%
17:00 +22°C° 0 mm 3 mps 750 mmHg 47%
18:00 +20°C° 0 mm 3 mps 750 mmHg 54%
19:00 +19°C° 0 mm 2 mps 750 mmHg 61%
20:00 +17°C° 0 mm 2 mps 750 mmHg 69%
21:00 +16°C° 0 mm 2 mps 750 mmHg 70%
22:00 +15°C° 0 mm 2 mps 750 mmHg 72%
23:00 +14°C° 0 mm 2 mps 750 mmHg 74%

16 July, Thursday

Time Temperature Precipitation Wind Pressure Humidity
00:00 +13°C° 0 mm 2 mps 750 mmHg 76%
01:00 +12°C° 0 mm 2 mps 750 mmHg 78%
02:00 +12°C° 0 mm 1 mps 750 mmHg 80%
03:00 +12°C° 0 mm 1 mps 750 mmHg 81%
04:00 +12°C° 0 mm 1 mps 750 mmHg 82%
05:00 +12°C° 0 mm 1 mps 750 mmHg 83%
06:00 +14°C° 0 mm 2 mps 750 mmHg 78%
07:00 +16°C° 0 mm 2 mps 750 mmHg 72%
08:00 +18°C° 0 mm 2 mps 749 mmHg 67%
09:00 +19°C° 0 mm 2 mps 749 mmHg 61%
10:00 +21°C° 0 mm 2 mps 749 mmHg 55%
11:00 +22°C° 0 mm 3 mps 749 mmHg 49%
12:00 +24°C° 0 mm 3 mps 749 mmHg 48%
13:00 +24°C° 0 mm 3 mps 749 mmHg 48%
14:00 +24°C° 0 mm 3 mps 749 mmHg 48%
15:00 +24°C° 0 mm 3 mps 749 mmHg 50%
16:00 +24°C° 0 mm 3 mps 748 mmHg 52%
17:00 +22°C° 0 mm 3 mps 748 mmHg 54%
18:00 +21°C° 0 mm 3 mps 748 mmHg 63%
19:00 +19°C° 0 mm 2 mps 749 mmHg 71%
20:00 +17°C° 0 mm 2 mps 749 mmHg 79%
21:00 +16°C° 0 mm 2 mps 749 mmHg 85%
22:00 +14°C° 0 mm 2 mps 749 mmHg 91%
23:00 +13°C° 0 mm 2 mps 750 mmHg 97%

17 July, Friday

Time Temperature Precipitation Wind Pressure Humidity
00:00 +12°C° 0 mm 1 mps 750 mmHg 96%
01:00 +11°C° 0 mm 1 mps 750 mmHg 95%
02:00 +10°C° 0 mm 1 mps 750 mmHg 95%
03:00 +10°C° 0 mm 1 mps 750 mmHg 94%
04:00 +10°C° 0 mm 1 mps 750 mmHg 92%
05:00 +10°C° 0 mm 1 mps 750 mmHg 91%
06:00 +12°C° 0 mm 2 mps 750 mmHg 82%
07:00 +14°C° 0 mm 2 mps 750 mmHg 73%
08:00 +16°C° 0 mm 2 mps 750 mmHg 63%
09:00 +18°C° 0 mm 2 mps 750 mmHg 57%
10:00 +19°C° 0 mm 2 mps 750 mmHg 50%
11:00 +21°C° 0 mm 2 mps 750 mmHg 44%
12:00 +21°C° 0 mm 2 mps 750 mmHg 43%
13:00 +23°C° 0 mm 2 mps 749 mmHg 42%
14:00 +23°C° 0 mm 2 mps 749 mmHg 42%
15:00 +23°C° 0 mm 2 mps 749 mmHg 44%
16:00 +23°C° 0 mm 2 mps 749 mmHg 47%
17:00 +21°C° 0 mm 2 mps 749 mmHg 50%
18:00 +20°C° 0 mm 2 mps 749 mmHg 59%
19:00 +18°C° 0 mm 2 mps 749 mmHg 68%
20:00 +16°C° 0 mm 2 mps 750 mmHg 77%
21:00 +16°C° 0 mm 2 mps 750 mmHg 81%
22:00 +15°C° 0 mm 2 mps 750 mmHg 84%
23:00 +14°C° 0 mm 1 mps 750 mmHg 88%
Show more